TimeCST,TemperatureF,Dew PointF,Humidity,Sea Level PressureIn,VisibilityMPH,Wind Direction,Wind SpeedMPH,Gust SpeedMPH,PrecipitationIn,Events,Conditions,WindDirDegrees,DateUTC
12:15 AM,42.8,35.6,76,29.89,10.0,West,13.8,20.7,N/A,,Overcast,270,2013-02-19 06:15:00
12:35 AM,41.0,33.8,76,29.90,10.0,NW,11.5,20.7,N/A,,Overcast,310,2013-02-19 06:35:00
12:55 AM,41.0,33.8,76,29.92,10.0,West,10.4,21.9,N/A,,Overcast,280,2013-02-19 06:55:00
1:15 AM,37.4,32.0,81,29.93,10.0,WNW,8.1,26.5,N/A,,Overcast,290,2013-02-19 07:15:00
1:35 AM,37.4,30.2,75,29.94,10.0,WNW,9.2,23.0,N/A,,Overcast,300,2013-02-19 07:35:00
1:55 AM,35.6,28.4,75,29.95,10.0,WNW,10.4,16.1,N/A,,Overcast,300,2013-02-19 07:55:00
2:15 AM,35.6,30.2,81,29.96,10.0,WNW,8.1,-,N/A,,Overcast,290,2013-02-19 08:15:00
2:35 AM,35.6,30.2,81,29.96,10.0,West,5.8,-,N/A,,Overcast,280,2013-02-19 08:35:00
2:55 AM,35.6,30.2,81,29.97,10.0,West,15.0,24.2,N/A,,Overcast,280,2013-02-19 08:55:00
3:15 AM,33.8,24.8,70,29.98,10.0,WNW,11.5,21.9,N/A,,Scattered Clouds,290,2013-02-19 09:15:00
3:35 AM,33.8,26.6,75,29.98,10.0,West,8.1,-,N/A,,Clear,270,2013-02-19 09:35:00
3:55 AM,33.8,26.6,75,29.98,10.0,West,8.1,-,N/A,,Clear,280,2013-02-19 09:55:00
4:15 AM,33.8,26.6,75,29.99,10.0,West,6.9,-,N/A,,Clear,270,2013-02-19 10:15:00
4:35 AM,32.0,24.8,75,30.00,10.0,West,5.8,-,N/A,,Clear,280,2013-02-19 10:35:00
4:55 AM,32.0,24.8,75,30.01,10.0,West,11.5,23.0,N/A,,Scattered Clouds,270,2013-02-19 10:55:00
5:15 AM,32.0,23.0,69,30.02,10.0,West,5.8,-,N/A,,Scattered Clouds,270,2013-02-19 11:15:00
5:35 AM,32.0,23.0,69,30.02,10.0,West,4.6,-,N/A,,Scattered Clouds,280,2013-02-19 11:35:00
7:55 AM,32.0,19.4,60,30.08,20.0,West,11.5,-,N/A,,Clear,280,2013-02-19 13:55:00
8:55 AM,33.8,17.6,52,30.10,20.0,WNW,17.3,-,N/A,,Clear,290,2013-02-19 14:55:00
9:55 AM,33.8,17.6,52,30.13,20.0,WNW,17.3,-,N/A,,Clear,290,2013-02-19 15:55:00
10:55 AM,35.6,19.4,52,30.14,20.0,WNW,17.3,-,N/A,,Clear,290,2013-02-19 16:55:00
11:55 AM,37.4,17.6,45,30.15,20.0,WNW,17.3,-,N/A,,Clear,290,2013-02-19 17:55:00
12:55 PM,39.2,19.4,45,30.14,20.0,West,11.5,18.4,N/A,,Scattered Clouds,270,2013-02-19 18:55:00
1:55 PM,41.0,17.6,39,30.14,20.0,West,11.5,20.7,N/A,,Clear,280,2013-02-19 19:55:00
2:55 PM,41.0,15.8,36,30.15,20.0,WNW,19.6,31.1,N/A,,Clear,290,2013-02-19 20:55:00
3:55 PM,41.0,12.2,31,30.18,20.0,West,13.8,18.4,N/A,,Clear,270,2013-02-19 21:55:00
4:55 PM,41.0,12.2,31,30.18,20.0,WNW,8.1,13.8,N/A,,Clear,300,2013-02-19 22:55:00
7:15 PM,33.8,14.0,44,30.23,10.0,NNW,6.9,-,N/A,,Clear,340,2013-02-20 01:15:00
7:35 PM,33.8,14.0,44,30.22,10.0,NNW,6.9,-,N/A,,Clear,330,2013-02-20 01:35:00
7:55 PM,33.8,14.0,44,30.23,10.0,NNW,5.8,-,N/A,,Clear,330,2013-02-20 01:55:00
8:15 PM,32.0,19.4,60,30.24,10.0,North,6.9,-,N/A,,Clear,360,2013-02-20 02:15:00
8:35 PM,32.0,19.4,60,30.26,10.0,North,8.1,-,N/A,,Clear,350,2013-02-20 02:35:00
8:55 PM,32.0,19.4,60,30.27,10.0,NNW,4.6,-,N/A,,Clear,340,2013-02-20 02:55:00
9:15 PM,30.2,19.4,64,30.28,10.0,North,4.6,-,N/A,,Clear,350,2013-02-20 03:15:00
9:35 PM,30.2,19.4,64,30.29,10.0,NW,3.5,-,N/A,,Clear,320,2013-02-20 03:35:00
9:55 PM,30.2,19.4,64,30.30,10.0,NW,3.5,-,N/A,,Clear,320,2013-02-20 03:55:00
10:15 PM,30.2,19.4,64,30.30,10.0,Calm,Calm,-,N/A,,Clear,0,2013-02-20 04:15:00
10:35 PM,30.2,19.4,64,30.30,10.0,Calm,Calm,-,N/A,,Clear,0,2013-02-20 04:35:00
10:55 PM,28.4,19.4,69,30.30,10.0,Calm,Calm,-,N/A,,Clear,0,2013-02-20 04:55:00
11:15 PM,28.4,19.4,69,30.29,10.0,North,3.5,-,N/A,,Clear,350,2013-02-20 05:15:00
11:35 PM,28.4,17.6,64,30.30,10.0,NNW,3.5,-,N/A,,Clear,330,2013-02-20 05:35:00
11:55 PM,28.4,17.6,64,30.30,10.0,NNW,4.6,-,N/A,,Clear,330,2013-02-20 05:55:00